Regional Weather Roundup
Issued by NWS

Home | Current Version | Previous Version | Text Only | Print | Product List | Glossary Off
Versions: 1 2 3 4 5 6 7 8 9 10 11 12 13 14 15 16 17 18 19 20 21 22 23 24 25 26 27 28 29 30 31 32 33 34 35 36 37 38 39 40 41 42 43 44 45 46 47 48 49 50

000
ASUS43 KTOP 270608
RWRKS

WEATHER ROUNDUP FOR KANSAS
NATIONAL WEATHER SERVICE GOODLAND KS
100 AM CDT TUE JUN 27 2017

NOTE:  "FAIR" INDICATES FEW OR NO CLOUDS BELOW 12,000 FEET WITH NO
SIGNIFICANT WEATHER AND/OR OBSTRUCTIONS TO VISIBILITY.

KSZ001>006-013>018-027>032-041>047-270700-
NORTHWEST KANSAS

CITY           SKY/WX    TMP DP  RH WIND       PRES   REMARKS
GOODLAND       CLEAR     63  58  83 E18       30.13R
6HR MIN TEMP:  63; 6HR MAX TEMP:  74;

HAYS           CLEAR     65  61  87 E12       30.11S
HILL CITY      CLEAR     65  61  87 E10       30.12S
6HR MIN TEMP:  64; 6HR MAX TEMP:  82;

RUSSELL        CLEAR     64  61  90 E12       30.09F
6HR MIN TEMP:  64; 6HR MAX TEMP:  83;

$$

KSZ061>065-074>080-084>089-270700-
SOUTHWEST KANSAS

CITY           SKY/WX    TMP DP  RH WIND       PRES   REMARKS
DODGE CITY     CLEAR     68  61  78 E8        30.09R
6HR MIN TEMP:  67; 6HR MAX TEMP:  84;

ELKHART          N/A     71  51  49 S9          N/A
GARDEN CITY    CLOUDY    68  61  78 E12       30.09S
6HR MIN TEMP:  68; 6HR MAX TEMP:  85; 6HR PCP:  0.01;

GREAT BEND     PTCLDY    66  60  81 E12       30.09F
LIBERAL        MOCLDY    71  61  70 S6        30.09R
PRATT          PTCLDY    66  58  77 E9        30.07F
6HR MIN TEMP:  66; 6HR MAX TEMP:  84;

$$

KSZ066>073-081>083-090>101-270700-
SOUTHEAST KANSAS

CITY           SKY/WX    TMP DP  RH WIND       PRES   REMARKS
CHANUTE        CLEAR     64  62  93 E7        30.10S
6HR MIN TEMP:  64; 6HR MAX TEMP:  76; 6HR PCP:  0.03;

COFFEYVILLE    PTCLDY    66  63  90 NE9       30.10R
6HR MIN TEMP:  66; 6HR MAX TEMP:  86; 6HR PCP: TRACE;

HUTCHINSON     MOCLDY    67  63  87 E7        30.09R
6HR MIN TEMP:  67; 6HR MAX TEMP:  87;

MEDICINE LODGE   N/A     74  60  61 E13G23    30.05R
NEWTON         PTCLDY    63  62  97 E10       30.10S
PARSONS        PTCLDY    64  62  93 VRB3      30.12R
6HR MIN TEMP:  64; 6HR MAX TEMP:  78; 6HR PCP:  0.03;

WICHITA INTL   MOCLDY    68  66  93 E7        30.08R
6HR MIN TEMP:  67; 6HR MAX TEMP:  87; 6HR PCP:  0.03;

WICHITA JABRA  CLEAR     65  64  97 E6        30.08S
6HR MIN TEMP:  64; 6HR MAX TEMP:  85;

WICHITA MCCONL PTCLDY    67  64  90 E8        30.08S
WINFIELD       CLEAR     67  67 100 E7        30.08S
6HR MIN TEMP:  63; 6HR MAX TEMP:  85; 6HR PCP:  0.43;

$$

KSZ007>012-019>026-033>040-048>060-102>105-270700-
NORTHEAST KANSAS

CITY           SKY/WX    TMP DP  RH WIND       PRES   REMARKS
CONCORDIA      CLEAR     59  59 100 E6        30.14R
6HR MIN TEMP:  58; 6HR MAX TEMP:  75;

EMPORIA        CLOUDY    62  61  96 NE3       30.13R
6HR MIN TEMP:  61; 6HR MAX TEMP:  77;

LAWRENCE       CLEAR     59  58  96 CALM      30.14R
6HR MIN TEMP:  57; 6HR MAX TEMP:  69; 6HR PCP:  0.09;

MANHATTAN      CLEAR     62  60  93 CALM      30.13R
6HR MIN TEMP:  62; 6HR MAX TEMP:  71; 6HR PCP:  0.03;

MARYSVILLE     CLEAR     59  57  94 E3        30.14S
OLATHE IND     CLEAR     58  55  90 NE6       30.15R
6HR MIN TEMP:  58; 6HR MAX TEMP:  69; 6HR PCP:  0.08;

OLATHE EXE     CLEAR     59  58  96 E7        30.14S
6HR MIN TEMP:  58; 6HR MAX TEMP:  68; 6HR PCP:  0.01;

SALINA         MOCLDY    68  60  75 E8        30.12R
6HR MIN TEMP:  68; 6HR MAX TEMP:  76;

TOPEKA BILLARD CLEAR     61  61 100 E3        30.14R
6HR MIN TEMP:  60; 6HR MAX TEMP:  68; 6HR PCP:  0.14;

TOPEKA FORBES  CLEAR     61  59  93 CALM      30.14R
6HR MIN TEMP:  60; 6HR MAX TEMP:  73; 6HR PCP:  0.14;

$$




USA.gov is the U.S. government's official web portal to all federal, state and local government web resources and services.